Weather History for Heber, UT

Change the Weather History Date:

Saturday, June 22, 2013

  Actual Average (KPVU) Record (KPVU)
Temperature  
Mean Temperature 57 °F -  
Max Temperature 77 °F 81 °F 95 °F (1990)
Min Temperature 37 °F 52 °F 42 °F (1989)
Degree Days  
Heating Degree Days 8    
Growing Degree Days 7 (Base 50)    
Moisture  
Dew Point 31 °F    
Average Humidity 43    
Maximum Humidity 87    
Minimum Humidity 14    
Precipitation  
Precipitation 0.00 in - - ()
Sea Level Pressure  
Sea Level Pressure 30.05 in    
Wind  
Wind Speed 3 mph (WSW)    
Max Wind Speed 18 mph    
Max Gust Speed 24 mph    
Visibility 10 miles    
Events      
Averages and records for this station are not official NWS values.
T = Trace of Precipitation, MM = Missing Value Source: NWS Daily Summary

Daily Weather History Graph

Daily Weather History Graph

Search for Another Location

Airport:

Trip Planner

Search our weather history database for the weather conditions in past years. The results will help you decide how hot, cold, wet, or windy it might be!

Date:

Astronomy

Jun. 22, 2013 Rise Set
Actual Time 5:55 AM MDT 8:59 PM MDT
Civil Twilight 5:22 AM MDT 9:33 PM MDT
Nautical Twilight 4:40 AM MDT 10:15 PM MDT
Astronomical Twilight 3:50 AM MDT 11:05 PM MDT
Moon 8:18 PM MDT (6/22) 5:12 AM MDT (6/22)
Length of Visible Light 16h 10m
Length of Day
15h 04m
Waxing Gibbous, 99% of the Moon is Illuminated
Jun 22
Waxing Gibbous
Jun 23
Full
Jun 29
Last Quarter
Jul 8
New
Jul 15
First Quarter

Hourly Weather History & Observations

Time (MDT) Temp. Dew Point Humidity Pressure Visibility Wind Dir Wind Speed Gust Speed Precip Events Conditions
12:15 AM 53.6 °F 32.0 °F 44% 30.00 in 10.0 mi East 5.8 mph - N/A   Clear
12:35 AM 48.2 °F 33.8 °F 58% 30.00 in 10.0 mi ESE 4.6 mph - N/A   Clear
12:55 AM 48.2 °F 35.6 °F 62% 30.01 in 10.0 mi Calm Calm - N/A   Clear
1:15 AM 51.8 °F 32.0 °F 47% 30.01 in 10.0 mi Calm Calm - N/A   Clear
1:35 AM 46.4 °F 33.8 °F 62% 30.01 in 10.0 mi Calm Calm - N/A   Clear
1:55 AM 48.2 °F 33.8 °F 58% 30.01 in 10.0 mi Calm Calm - N/A   Clear
2:15 AM 44.6 °F 33.8 °F 66% 30.01 in 10.0 mi Calm Calm - N/A   Clear
2:35 AM 41.0 °F 35.6 °F 81% 30.01 in 10.0 mi Calm Calm - N/A   Clear
2:55 AM 41.0 °F 33.8 °F 76% 30.02 in 10.0 mi Calm Calm - N/A   Clear
3:15 AM 42.8 °F 35.6 °F 76% 30.03 in 10.0 mi Calm Calm - N/A   Clear
3:35 AM 41.0 °F 33.8 °F 76% 30.03 in 10.0 mi Calm Calm - N/A   Clear
3:55 AM 41.0 °F 33.8 °F 76% 30.04 in 10.0 mi Calm Calm - N/A   Clear
4:15 AM 41.0 °F 33.8 °F 76% 30.05 in 10.0 mi Calm Calm - N/A   Clear
4:35 AM 41.0 °F 33.8 °F 76% 30.05 in 10.0 mi Calm Calm - N/A   Clear
4:55 AM 39.2 °F 33.8 °F 81% 30.05 in 10.0 mi Calm Calm - N/A   Clear
5:15 AM 39.2 °F 33.8 °F 81% 30.06 in 10.0 mi Calm Calm - N/A   Clear
5:35 AM 37.4 °F 33.8 °F 87% 30.06 in 10.0 mi Calm Calm - N/A   Clear
5:55 AM 37.4 °F 32.0 °F 81% 30.06 in 10.0 mi Calm Calm - N/A   Clear
6:15 AM 37.4 °F 33.8 °F 87% 30.07 in 10.0 mi Calm Calm - N/A   Clear
6:35 AM 37.4 °F 32.0 °F 81% 30.06 in 10.0 mi Calm Calm - N/A   Clear
6:55 AM 42.8 °F 33.8 °F 70% 30.07 in 10.0 mi Calm Calm - N/A   Clear
7:15 AM 44.6 °F 33.8 °F 66% 30.07 in 10.0 mi Calm Calm - N/A   Clear
7:35 AM 46.4 °F 37.4 °F 71% 30.07 in 10.0 mi Calm Calm - N/A   Clear
7:55 AM 48.2 °F 37.4 °F 66% 30.07 in 10.0 mi Calm Calm - N/A   Clear
8:15 AM 50.0 °F 35.6 °F 58% 30.07 in 10.0 mi Calm Calm - N/A   Clear
8:35 AM 51.8 °F 33.8 °F 50% 30.07 in 10.0 mi Calm Calm - N/A   Clear
8:55 AM 53.6 °F 33.8 °F 47% 30.08 in 10.0 mi Calm Calm - N/A   Clear
9:15 AM 55.4 °F 35.6 °F 47% 30.08 in 10.0 mi Calm Calm - N/A   Clear
9:35 AM 57.2 °F 33.8 °F 41% 30.08 in 10.0 mi Calm Calm - N/A   Clear
9:55 AM 59.0 °F 32.0 °F 36% 30.08 in 10.0 mi Calm Calm - N/A   Clear
10:15 AM 60.8 °F 32.0 °F 34% 30.08 in 10.0 mi NNW 3.5 mph - N/A   Clear
10:35 AM 62.6 °F 32.0 °F 32% 30.08 in 10.0 mi Calm Calm - N/A   Clear
10:55 AM 64.4 °F 32.0 °F 30% 30.07 in 10.0 mi Calm Calm - N/A   Clear
11:15 AM 68.0 °F 32.0 °F 26% 30.07 in 10.0 mi NNE 3.5 mph - N/A   Clear
11:35 AM 68.0 °F 32.0 °F 26% 30.07 in 10.0 mi Calm Calm - N/A   Clear
11:55 AM 68.0 °F 32.0 °F 26% 30.07 in 10.0 mi WNW 4.6 mph - N/A   Clear
12:15 PM 69.8 °F 32.0 °F 25% 30.07 in 10.0 mi Calm Calm - N/A   Clear
12:35 PM 71.6 °F 26.6 °F 19% 30.06 in 10.0 mi West 6.9 mph - N/A   Clear
12:55 PM 73.4 °F 30.2 °F 20% 30.06 in 10.0 mi WSW 11.5 mph 18.4 mph N/A   Clear
1:15 PM 73.4 °F 30.2 °F 20% 30.06 in 10.0 mi SW 11.5 mph 16.1 mph N/A   Clear
1:35 PM 73.4 °F 30.2 °F 20% 30.06 in 10.0 mi WSW 9.2 mph 17.3 mph N/A   Clear
1:55 PM 73.4 °F 23.0 °F 15% 30.05 in 10.0 mi SW 13.8 mph 24.2 mph N/A   Clear
2:15 PM 75.2 °F 26.6 °F 17% 30.05 in 10.0 mi SW 18.4 mph 23.0 mph N/A   Clear
2:35 PM 75.2 °F 26.6 °F 17% 30.05 in 10.0 mi SW 12.7 mph 21.9 mph N/A   Clear
2:55 PM 75.2 °F 28.4 °F 18% 30.04 in 10.0 mi SW 13.8 mph 21.9 mph N/A   Clear
3:15 PM 75.2 °F 30.2 °F 19% 30.04 in 10.0 mi SW 12.7 mph - N/A   Clear
3:35 PM 77.0 °F 28.4 °F 17% 30.04 in 10.0 mi SSW 11.5 mph 16.1 mph N/A   Clear
3:55 PM 75.2 °F 28.4 °F 18% 30.04 in 10.0 mi WSW 9.2 mph - N/A   Clear
4:15 PM 77.0 °F 26.6 °F 16% 30.04 in 10.0 mi WSW 8.1 mph 11.5 mph N/A   Clear
4:35 PM 77.0 °F 26.6 °F 16% 30.03 in 10.0 mi SW 10.4 mph - N/A   Clear
4:55 PM 75.2 °F 26.6 °F 17% 30.03 in 10.0 mi West 6.9 mph - N/A   Clear
5:15 PM 77.0 °F 26.6 °F 16% 30.03 in 10.0 mi SSW 3.5 mph 11.5 mph N/A   Clear
5:35 PM 75.2 °F 26.6 °F 17% 30.02 in 10.0 mi WSW 9.2 mph - N/A   Clear
5:55 PM 75.2 °F 23.0 °F 14% 30.01 in 10.0 mi Calm Calm - N/A   Clear
6:15 PM 77.0 °F 24.8 °F 14% 30.01 in 10.0 mi West 9.2 mph - N/A   Clear
6:35 PM 75.2 °F 23.0 °F 14% 30.01 in 10.0 mi WSW 3.5 mph - N/A   Clear
6:55 PM 75.2 °F 23.0 °F 14% 30.01 in 10.0 mi West 8.1 mph - N/A   Clear
7:15 PM 73.4 °F 24.8 °F 16% 30.02 in 10.0 mi West 10.4 mph 18.4 mph N/A   Clear
7:35 PM 73.4 °F 28.4 °F 19% 30.03 in 10.0 mi WSW 10.4 mph - N/A   Clear
7:55 PM 71.6 °F 28.4 °F 20% 30.03 in 10.0 mi WSW 12.7 mph - N/A   Clear
8:15 PM 69.8 °F 26.6 °F 20% 30.04 in 10.0 mi WNW 8.1 mph - N/A   Clear
8:35 PM 66.2 °F 32.0 °F 28% 30.04 in 10.0 mi NNW 4.6 mph - N/A   Clear
8:55 PM 60.8 °F 32.0 °F 34% 30.04 in 10.0 mi Calm Calm - N/A   Clear
9:15 PM 57.2 °F 35.6 °F 44% 30.05 in 7.0 mi East 5.8 mph - N/A   Clear
9:35 PM 59.0 °F 33.8 °F 39% 30.05 in 10.0 mi Calm Calm - N/A   Clear
9:55 PM 53.6 °F 35.6 °F 51% 30.07 in 10.0 mi SE 4.6 mph - N/A   Clear
10:15 PM 53.6 °F 33.8 °F 47% 30.07 in 10.0 mi East 6.9 mph - N/A   Clear
10:35 PM 51.8 °F 32.0 °F 47% 30.08 in 10.0 mi East 6.9 mph - N/A   Clear
10:55 PM 50.0 °F 33.8 °F 54% 30.08 in 10.0 mi East 5.8 mph - N/A   Clear
11:15 PM 51.8 °F 32.0 °F 47% 30.08 in 10.0 mi Calm Calm - N/A   Clear
11:35 PM 50.0 °F 32.0 °F 50% 30.08 in 10.0 mi Calm Calm - N/A   Clear
11:55 PM 46.4 °F 35.6 °F 66% 30.08 in 10.0 mi Calm Calm - N/A   Clear